Date String (YYYY-MM-DD hh:mm:ss) UTC,Instrument flags,Ambient pressure (hPa),Sample flow (lpm),Bypass flow (lpm),Sample temperature (°C),Ambient temperature (°C),ASC tube jacket temperature (°C),LED temperature (°C),Box temperature (°C),Sample RH (%),Span deviation,Mass concentration (μg/m³),Mass concentration (μg/m³),Mass concentration (μg/m³)
DateTimeUTC,F1_M11,P_M11,Q1_M11,Q2_M11,T1_M11,T2_M11,T3_M11,T4_M11,T5_M11,U1_M11,ZSPAN_M11,X2_M11,X0_M11,X1_M11
2022-08-12 00:00:00,,0828.7,4.99,0.00,29.3,27.6,00.0,38.0,31.1,29.1,0000.0,0006.83,0020.37,0005.51
2022-08-12 00:01:00,,0828.7,5.00,0.00,29.3,27.8,00.0,38.0,31.2,29.5,0000.0,0006.91,0021.14,0005.52
2022-08-12 00:02:00,,0828.6,4.99,0.00,29.4,28.0,00.0,38.1,31.3,29.6,0000.0,0006.90,0021.11,0005.54
2022-08-12 00:03:00,,0829.0,4.99,0.00,29.4,28.2,00.0,38.1,31.4,28.5,0000.0,0006.93,0019.98,0005.54
2022-08-12 00:04:00,,0829.0,5.01,0.00,29.4,28.2,00.0,38.1,31.4,28.2,0000.0,0006.95,0020.14,0005.54
2022-08-12 00:05:00,,0829.1,5.00,0.00,29.4,27.6,00.0,38.1,31.2,27.5,0000.0,0006.98,0021.40,0005.55
2022-08-12 00:06:00,,0829.2,5.00,0.00,29.4,27.2,00.0,38.0,31.2,27.6,0000.0,0007.03,0021.86,0005.56
2022-08-12 00:07:00,,0829.2,5.00,0.00,29.3,27.2,00.0,38.0,31.2,27.6,0000.0,0007.01,0021.50,0005.55
2022-08-12 00:08:00,,0829.2,5.00,0.00,29.3,27.4,00.0,38.0,31.1,27.8,0000.0,0007.01,0020.88,0005.54
2022-08-12 00:09:00,,0829.2,5.00,0.00,29.3,27.6,00.0,38.0,31.1,28.5,0000.0,0007.05,0020.98,0005.53
2022-08-12 00:10:00,,0829.2,4.98,0.00,29.3,27.8,00.0,38.1,31.2,28.7,0000.0,0007.08,0019.98,0005.53
2022-08-12 00:11:00,,0829.2,4.99,0.00,29.4,28.0,00.0,38.1,31.3,28.6,0000.0,0007.12,0019.83,0005.52
2022-08-12 00:12:00,,0829.1,5.01,0.00,29.4,28.2,00.0,38.1,31.4,28.7,0000.0,0007.11,0020.22,0005.52
2022-08-12 00:13:00,,0829.0,4.99,0.00,29.5,28.2,00.0,38.1,31.4,28.8,0000.0,0007.10,0020.87,0005.50
2022-08-12 00:14:00,,0829.0,5.00,0.00,29.4,27.7,00.0,38.1,31.2,28.3,0000.0,0007.08,0020.69,0005.47
2022-08-12 00:15:00,,0828.6,5.00,0.00,29.4,27.3,00.0,38.1,31.2,29.2,0000.0,0007.05,0020.30,0005.46
2022-08-12 00:16:00,,0828.7,5.00,0.00,29.3,27.3,00.0,38.1,31.2,29.5,0000.0,0007.00,0020.26,0005.43
2022-08-12 00:17:00,,0828.6,4.99,0.00,29.3,27.4,00.0,38.1,31.1,29.4,0000.0,0006.95,0020.25,0005.40
2022-08-12 00:18:00,,0828.8,5.01,0.00,29.3,27.6,00.0,38.1,31.1,29.6,0000.0,0006.94,0020.39,0005.38
2022-08-12 00:19:00,,0828.6,5.00,0.00,29.3,27.8,00.0,38.1,31.2,29.8,0000.0,0006.98,0020.83,0005.36
2022-08-12 00:20:00,,0828.8,4.99,0.00,29.4,28.0,00.0,38.1,31.3,29.7,0000.0,0006.95,0019.97,0005.33
2022-08-12 00:21:00,,0828.8,5.01,0.00,29.4,28.2,00.0,38.1,31.4,29.2,0000.0,0006.98,0019.48,0005.31
2022-08-12 00:22:00,,0828.6,5.00,0.00,29.5,28.2,00.0,38.1,31.4,29.8,0000.0,0007.01,0019.94,0005.29
2022-08-12 00:23:00,,0828.6,5.01,0.00,29.4,27.7,00.0,38.1,31.3,29.9,0000.0,0007.05,0021.05,0005.27
2022-08-12 00:24:00,,0828.9,5.00,0.00,29.4,27.3,00.0,38.1,31.2,29.3,0000.0,0007.05,0021.10,0005.28
2022-08-12 00:25:00,,0828.5,5.00,0.00,29.3,27.3,00.0,38.1,31.1,28.8,0000.0,0007.07,0021.90,0005.30
2022-08-12 00:26:00,,0828.7,5.00,0.00,29.3,27.4,00.0,38.1,31.1,28.8,0000.0,0007.13,0023.75,0005.30
2022-08-12 00:27:00,,0829.0,5.00,0.00,29.3,27.5,00.0,38.1,31.1,29.0,0000.0,0007.17,0023.71,0005.31
2022-08-12 00:28:00,,0828.8,5.01,0.00,29.3,27.7,00.0,38.1,31.2,29.2,0000.0,0007.19,0024.50,0005.31
2022-08-12 00:29:00,,0828.7,4.99,0.00,29.4,28.0,00.0,38.1,31.3,29.3,0000.0,0007.24,0025.49,0005.31
2022-08-12 00:30:00,,0829.0,5.00,0.00,29.4,28.2,00.0,38.1,31.4,28.8,0000.0,0007.19,0025.79,0005.30
2022-08-12 00:31:00,,0828.7,5.00,0.00,29.5,28.2,00.0,38.1,31.4,28.2,0000.0,0007.19,0026.23,0005.30
2022-08-12 00:32:00,,0829.1,4.99,0.00,29.4,27.7,00.0,38.1,31.3,28.2,0000.0,0007.08,0026.04,0005.30
2022-08-12 00:33:00,,0829.0,5.00,0.00,29.4,27.2,00.0,38.1,31.2,28.3,0000.0,0007.06,0026.06,0005.30
2022-08-12 00:34:00,,0829.1,5.00,0.00,29.3,27.2,00.0,38.1,31.1,28.5,0000.0,0006.96,0024.70,0005.30
2022-08-12 00:35:00,,0829.0,5.00,0.00,29.3,27.3,00.0,38.1,31.1,28.4,0000.0,0006.89,0023.68,0005.29
2022-08-12 00:36:00,,0829.0,4.99,0.00,29.3,27.5,00.0,38.1,31.1,28.7,0000.0,0006.88,0022.53,0005.28
2022-08-12 00:37:00,,0828.9,5.00,0.00,29.3,27.7,00.0,38.1,31.2,28.8,0000.0,0006.82,0021.38,0005.27
2022-08-12 00:38:00,,0829.1,5.00,0.00,29.3,27.9,00.0,38.1,31.3,28.7,0000.0,0006.72,0021.17,0005.25
2022-08-12 00:39:00,,0828.9,5.00,0.00,29.4,28.1,00.0,38.1,31.3,28.6,0000.0,0006.69,0020.20,0005.24
2022-08-12 00:40:00,,0828.9,5.01,0.00,29.4,28.2,00.0,38.1,31.4,28.5,0000.0,0006.62,0018.33,0005.24
2022-08-12 00:41:00,,0829.0,4.99,0.00,29.4,27.7,00.0,38.1,31.3,28.6,0000.0,0006.61,0017.44,0005.26
2022-08-12 00:42:00,,0828.7,5.01,0.00,29.4,27.3,00.0,38.1,31.1,28.8,0000.0,0006.60,0017.97,0005.26
2022-08-12 00:43:00,,0828.6,4.99,0.00,29.3,27.1,00.0,38.1,31.1,28.9,0000.0,0006.63,0018.60,0005.26
2022-08-12 00:44:00,,0828.6,5.01,0.00,29.3,27.2,00.0,38.0,31.0,28.9,0000.0,0006.66,0019.05,0005.27
2022-08-12 00:45:00,,0828.6,5.01,0.00,29.3,27.4,00.0,38.0,31.1,28.6,0000.0,0006.72,0020.64,0005.29
2022-08-12 00:46:00,,0828.6,4.99,0.00,29.3,27.6,00.0,38.1,31.1,28.5,0000.0,0006.76,0021.48,0005.31
2022-08-12 00:47:00,,0828.8,5.00,0.00,29.3,27.8,00.0,38.1,31.2,28.5,0000.0,0006.79,0021.38,0005.35
2022-08-12 00:48:00,,0828.8,5.01,0.00,29.4,28.1,00.0,38.1,31.3,27.9,0000.0,0006.78,0020.59,0005.39
2022-08-12 00:49:00,,0828.6,4.99,0.00,29.4,28.3,00.0,38.1,31.4,27.4,0000.0,0006.83,0019.50,0005.43
2022-08-12 00:50:00,,0828.5,4.99,0.00,29.5,28.4,00.0,38.1,31.4,27.3,0000.0,0006.88,0019.88,0005.44
2022-08-12 00:51:00,,0828.5,5.01,0.00,29.5,28.0,00.0,38.1,31.4,27.2,0000.0,0006.96,0020.17,0005.47
2022-08-12 00:52:00,,0828.5,4.99,0.00,29.4,27.4,00.0,38.1,31.2,26.8,0000.0,0007.03,0021.35,0005.50
2022-08-12 00:53:00,,0828.5,5.00,0.00,29.4,27.2,00.0,38.1,31.2,26.6,0000.0,0007.03,0020.11,0005.52
2022-08-12 00:54:00,,0828.5,5.00,0.00,29.3,27.3,00.0,38.1,31.1,26.8,0000.0,0007.03,0019.36,0005.56
2022-08-12 00:55:00,,0828.5,4.98,0.00,29.3,27.5,00.0,38.1,31.2,26.9,0000.0,0007.04,0018.36,0005.58
2022-08-12 00:56:00,,0828.5,5.00,0.00,29.3,27.7,00.0,38.1,31.2,26.7,0000.0,0007.02,0016.70,0005.57
2022-08-12 00:57:00,,0828.5,5.00,0.00,29.4,27.9,00.0,38.1,31.3,26.6,0000.0,0007.03,0016.18,0005.57
2022-08-12 00:58:00,,0828.5,5.00,0.00,29.4,28.1,00.0,38.1,31.3,26.6,0000.0,0007.06,0016.52,0005.56
2022-08-12 00:59:00,,0828.5,5.00,0.00,29.4,28.3,00.0,38.1,31.4,26.5,0000.0,0007.09,0017.27,0005.55
